Destin, FL

10:53 PM CDT on March 27, 2017 (GMT -0500)
Destin-Fort Walton Beach

Weather History for KDTS - January, 2013

Change the Weather History Date:

Thursday, January 3, 2013

  Actual Average Record
Temperature  
Mean Temperature 47 °F -  
Max Temperature 50 °F 58 °F 75 °F (2017)
Min Temperature 42 °F 43 °F 25 °F (2008)
Degree Days  
Heating Degree Days 18    
Moisture  
Dew Point 41 °F    
Average Humidity 82    
Maximum Humidity 93    
Minimum Humidity 68    
Precipitation  
Precipitation 0.29 in - - ()
Sea Level Pressure  
Sea Level Pressure 30.23 in    
Wind  
Wind Speed 11 mph (North)    
Max Wind Speed 16 mph    
Max Gust Speed 20 mph    
Visibility 9 miles    
Events Rain    
Averages and records for this station are not official NWS values.
T = Trace of Precipitation, MM = Missing Value Source: NWS Daily Summary

Daily Weather History Graph

Daily Weather History Graph

Search for Another Location

Airport or City:

Trip Planner

Search our weather history database for the weather conditions in past years. The results will help you decide how hot, cold, wet, or windy it might be!

Date:

Astronomy

Jan. 03, 2013 Rise Set
Actual Time 6:43 AM CST 4:58 PM CST
Civil Twilight 6:16 AM CST 5:24 PM CST
Nautical Twilight 5:47 AM CST 5:54 PM CST
Astronomical Twilight 5:17 AM CST 6:23 PM CST
Moon 11:03 PM CST (1/3) 10:21 AM CST (1/3)
Length of Visible Light 11h 07m
Length of Day
10h 14m
Waning Gibbous, 65% of the Moon is Illuminated
Jan 3
Waning Gibbous
Jan 4
Last Quarter
Jan 11
New
Jan 18
First Quarter
Jan 26
Full

Hourly Weather History & Observations

Time (CST) Temp. Windchill Dew Point Humidity Pressure Visibility Wind Dir Wind Speed Gust Speed Precip Events Conditions
12:53 AM 50.0 °F - 43.0 °F 77% 30.15 in 10.0 mi North 10.4 mph - 0.00 in Rain Light Rain
1:53 AM 48.9 °F - 43.0 °F 80% 30.15 in 10.0 mi North 11.5 mph - 0.00 in Rain Light Rain
2:53 AM 48.0 °F - 44.1 °F 86% 30.17 in 7.0 mi North 12.7 mph - 0.05 in Rain Rain
3:53 AM 46.9 °F - 43.0 °F 86% 30.17 in 6.0 mi North 8.1 mph - 0.04 in Rain Rain
4:53 AM 46.9 °F - 43.0 °F 86% 30.17 in 7.0 mi North 11.5 mph - 0.03 in Rain Light Rain
5:02 AM 46.4 °F 42.4 °F 42.8 °F 87% 30.17 in 7.0 mi North 8.1 mph - 0.01 in Rain Rain
5:19 AM 46.4 °F 41.9 °F 44.6 °F 93% 30.17 in 7.0 mi North 9.2 mph - 0.02 in Rain Light Rain
5:53 AM 46.0 °F 41.0 °F 43.0 °F 89% 30.19 in 8.0 mi North 10.4 mph - 0.05 in Rain Rain
6:53 AM 46.0 °F 39.3 °F 42.1 °F 86% 30.20 in 10.0 mi North 16.1 mph - 0.02 in Rain Light Rain
7:35 AM 46.4 °F 41.9 °F 42.8 °F 87% 30.21 in 8.0 mi North 9.2 mph - 0.01 in Rain Light Rain
7:53 AM 46.0 °F 41.9 °F 42.1 °F 86% 30.22 in 10.0 mi NNE 8.1 mph - 0.01 in Rain Light Rain
8:39 AM 46.4 °F 40.7 °F 42.8 °F 87% 30.22 in 10.0 mi North 12.7 mph - 0.00 in Rain Light Rain
8:53 AM 46.0 °F 41.0 °F 42.1 °F 86% 30.22 in 10.0 mi NNE 10.4 mph 16.1 mph 0.00 in Rain Light Rain
9:03 AM 46.4 °F 41.5 °F 42.8 °F 87% 30.23 in 6.0 mi North 10.4 mph - 0.02 in Rain Rain
9:31 AM 46.4 °F 40.4 °F 42.8 °F 87% 30.25 in 7.0 mi North 13.8 mph - 0.04 in Rain Rain
9:38 AM 46.4 °F 41.1 °F 42.8 °F 87% 30.26 in 7.0 mi North 11.5 mph 19.6 mph 0.05 in Rain Light Rain
9:45 AM 46.4 °F 41.1 °F 42.8 °F 87% 30.26 in 8.0 mi North 11.5 mph - 0.05 in Rain Rain
9:53 AM 46.0 °F 41.9 °F 42.1 °F 86% 30.26 in 10.0 mi North 8.1 mph - 0.06 in Rain Light Rain
10:28 AM 46.4 °F 41.5 °F 42.8 °F 87% 30.25 in 10.0 mi North 10.4 mph - 0.02 in Rain Light Rain
10:53 AM 46.9 °F - 43.0 °F 86% 30.23 in 10.0 mi NNE 6.9 mph - 0.03 in Rain Light Rain
11:12 AM 46.4 °F 41.1 °F 42.8 °F 87% 30.23 in 10.0 mi North 11.5 mph - 0.00 in Rain Light Rain
11:30 AM 46.4 °F 40.7 °F 42.8 °F 87% 30.22 in 10.0 mi North 12.7 mph 18.4 mph 0.00 in Rain Light Rain
11:53 AM 46.9 °F - 43.0 °F 86% 30.22 in 10.0 mi North 10.4 mph - 0.00 in   Mostly Cloudy
12:22 PM 48.2 °F - 42.8 °F 82% 30.20 in 10.0 mi North 10.4 mph - N/A   Mostly Cloudy
12:53 PM 48.9 °F - 43.0 °F 80% 30.20 in 10.0 mi North 8.1 mph - N/A   Overcast
1:53 PM 48.9 °F - 42.1 °F 77% 30.20 in 10.0 mi North 9.2 mph - N/A   Overcast
2:53 PM 50.0 °F - 42.1 °F 74% 30.21 in 10.0 mi North 10.4 mph - N/A   Overcast
3:53 PM 48.9 °F - 41.0 °F 74% 30.25 in 10.0 mi North 13.8 mph - N/A   Overcast
4:53 PM 46.9 °F - 39.9 °F 77% 30.25 in 10.0 mi North 9.2 mph - N/A   Partly Cloudy
5:53 PM 46.9 °F - 39.9 °F 77% 30.27 in 10.0 mi North 9.2 mph - N/A   Clear
6:53 PM 46.0 °F 41.0 °F 39.0 °F 76% 30.30 in 10.0 mi North 10.4 mph - N/A   Clear
7:53 PM 45.0 °F 40.1 °F 37.9 °F 76% 30.30 in 10.0 mi North 9.2 mph 17.3 mph N/A   Clear
8:53 PM 44.1 °F 38.1 °F 37.9 °F 79% 30.32 in 10.0 mi NNW 11.5 mph - N/A   Clear
9:53 PM 44.1 °F 38.1 °F 35.1 °F 71% 30.32 in 10.0 mi North 11.5 mph - N/A   Clear
10:53 PM 44.1 °F 37.7 °F 34.0 °F 68% 30.33 in 10.0 mi North 12.7 mph - N/A   Clear
11:53 PM 42.1 °F 36.1 °F 33.1 °F 70% 30.31 in 10.0 mi NNE 10.4 mph - N/A   Clear